RADUGA 13 [-]

Last updated on Jan. 18, 2020, 4:38 a.m. UTC

1 14307U 83088A   20017.55534826 -.00000145  00000-0  00000-0 0  9991
2 14307  13.8263 332.1921 0020251  12.1799 167.7836  0.98174840 95946
UTC
Height (km)
Latitude
Longitude
Inclination
Orbital Period
UTC large
Height (km)
Speed (km/s)
/
Latitude / Longitude
Inclination (degrees)
Orbital Period (minutes)
Azimuth
Elevation
Range (km)
Doppler Factor
iOS Compass Heading
iOS Angle

Next 30 passes for location: Hong Kong

Rise time Rise Azimuth (degrees) Set time Set Azimuth (degrees) Duration Max altitude (degrees)

No matching passes for this satellites